Home > Weather > Porto > Past weeks

Flag for Portugal Weather for the Past 2 Weeks in Porto, Portugal

Now
72 °F

Passing clouds.


Feels Like: 76 °F
Forecast: 52 / 75 °F
Wind: 7 mph from East

Location: Porto / Pedras Rubras

Current Time: May 2, 2016 at 12:06:02 PM

Latest Report: May 2, 2016 at 11:30 AM


Visibility: N/A

Pressure: 30.21 "Hg

Humidity: 31%

Dew Point: 39 °F

Location of PortoLocation

Historic Weather in Porto — Graph

°F

Porto Temperature Yesterday

Maximum temperature yesterday: 66 °F (at 5:00 PM)
Minimum temperature yesterday: 48 °F (at 2:00 AM)
Average temperature yesterday: 58 °F

High & Low Weather Summary for the Past Weeks

 TemperatureHumidityPressure
High70 °F (Apr 19, 3:00 PM)100% (Apr 18, 3:30 AM)30.33 "Hg (Apr 18, 3:30 AM)
Low45 °F (Apr 18, 2:30 AM)33% (May 2, 11:00 AM)29.77 "Hg (Apr 19, 3:30 AM)
Average58 °F75%30.02 "Hg
* Reported Apr 17 11:00 AM — May 2 11:00 AM, Porto, Weather by CustomWeather, © 2016

Note: Actual official high and low records may vary slightly from our data, if they occured in-between our weather recording intervals... More about our weather records

Advertising

Porto Weather History for the Previous 24 Hours

Scroll right to see more
 ConditionsComfort  
Time TempWeatherWind HumidityBarometerVisibility
11:00 AM
Mon, May 2
70 °FPassing clouds.7 mph33%30.24 "HgN/A
10:30 AM66 °FPassing clouds.8 mph37%30.21 "HgN/A
10:00 AM66 °FPassing clouds.7 mph40%30.21 "HgN/A
9:30 AM64 °FPassing clouds.7 mph40%30.21 "HgN/A
9:00 AM63 °FPassing clouds.7 mph42%30.21 "HgN/A
8:30 AM63 °FPassing clouds.6 mph45%30.21 "HgN/A
8:00 AM59 °FPassing clouds.8 mph51%30.21 "HgN/A
7:30 AM57 °FSunny.8 mph55%30.21 "Hg10 mi
6:00 AM48 °FClear.5 mph87%30.21 "Hg10 mi
5:30 AM48 °FClear.3 mph82%30.21 "Hg10 mi
5:00 AM48 °FClear.5 mph87%30.21 "Hg10 mi
4:30 AM48 °FClear.5 mph87%30.21 "Hg10 mi
4:00 AM48 °FClear.2 mph82%30.21 "Hg10 mi
3:30 AM54 °FClear.8 mph72%30.21 "Hg10 mi
3:00 AM52 °FClear.6 mph77%30.21 "Hg10 mi
2:30 AM54 °FPassing clouds.3 mph77%30.24 "HgN/A
2:00 AM52 °FClear.1 mph88%30.24 "Hg10 mi
1:30 AM50 °FClear.2 mph94%30.24 "Hg10 mi
1:00 AM50 °FClear.2 mph94%30.24 "Hg10 mi
12:30 AM52 °FClear.1 mph88%30.24 "Hg10 mi
12:00 AM52 °FClear.No wind94%30.24 "Hg10 mi
11:30 PM
Sun, May 1
52 °FClear.No wind94%30.24 "Hg10 mi
11:00 PM54 °FClear.No wind88%30.27 "Hg10 mi
10:30 PM55 °FClear.No wind82%30.27 "Hg10 mi
10:00 PM55 °FClear.1 mph82%30.27 "Hg10 mi
9:30 PM57 °FPassing clouds.6 mph77%30.27 "HgN/A
9:00 PM57 °FSunny.7 mph77%30.27 "Hg10 mi
8:30 PM59 °FSunny.8 mph72%30.24 "Hg10 mi
8:00 PM61 °FPassing clouds.7 mph63%30.24 "HgN/A
7:30 PM63 °FPassing clouds.6 mph68%30.27 "HgN/A
7:00 PM63 °FPassing clouds.8 mph64%30.27 "HgN/A
6:30 PM64 °FPassing clouds.9 mph49%30.27 "HgN/A
6:00 PM64 °FPassing clouds.9 mph52%30.27 "HgN/A
5:30 PM66 °FPassing clouds.10 mph43%30.27 "HgN/A
5:00 PM66 °FPassing clouds.10 mph43%30.27 "HgN/A
4:30 PM64 °FSunny.13 mph46%30.30 "Hg10 mi
4:00 PM63 °FPassing clouds.14 mph45%30.30 "HgN/A
3:30 PM63 °FPassing clouds.12 mph45%30.30 "HgN/A
3:00 PM63 °FSunny.12 mph49%30.30 "Hg10 mi
2:30 PM63 °FPassing clouds.13 mph49%30.30 "HgN/A
2:00 PM63 °FSunny.13 mph49%30.33 "Hg10 mi
1:30 PM63 °FPassing clouds.8 mph49%30.33 "HgN/A
1:00 PM63 °FPassing clouds.9 mph52%30.33 "HgN/A
12:30 PM63 °FPassing clouds.7 mph52%30.33 "HgN/A
12:00 PM64 °FSunny.6 mph40%30.33 "Hg10 mi
Weather by CustomWeather, © 2016

See weather overviewHow to use our weather pages